Regional Weather Roundup
Issued by NWS

Home | Current Version | Previous Version | Text Only | Print | Product List | Glossary On
Versions: 1 2 3 4 5 6 7 8 9 10 11 12 13 14 15 16 17 18 19 20 21 22 23 24 25 26 27 28 29 30 31 32 33 34 35 36 37 38 39 40 41 42 43 44 45 46 47 48 49 50
000
ASUS43 KMPX 200710
RWRMN
WEATHER ROUNDUP FOR MINNESOTA
NATIONAL WEATHER SERVICE TWIN CITIES/CHANHASSEN MN
200 AM CDT WED AUG 20 2014


NOTE: "FAIR" INDICATES FEW OR NO CLOUDS BELOW 12,000 FEET WITH NO
SIGNIFICANT WEATHER AND/OR OBSTRUCTIONS TO VISIBILITY. N/A MEANS
CURRENT SKY AND/OR WEATHER CONDITIONS ARE NOT AVAILABLE.

MNZ060>063-068>070-200800-
   Twin Cities Metro

CITY           SKY/WX    TMP DP  RH WIND       PRES   REMARKS
TWIN CITIES    PTCLDY    69  66  90 CALM      29.80R
ST PAUL        CLEAR     66  65  96 CALM      29.80S
CRYSTAL        CLEAR     67  64  90 CALM      29.79S
BLAINE         CLEAR     64  63  94 CALM      29.81R FOG
LAKEVILLE      CLEAR     63  63 100 CALM      29.80S FOG
EDEN PRAIRIE   PTCLDY    66  64  93 CALM      29.79S
SOUTH ST PAUL  CLEAR     66  64  93 CALM      29.80R
LAKE ELMO      FOG       61  61 100 CALM      29.81F VSB 1/2
$$
MNZ001>005-007-008-013>017-022>024-027-028-200800-
   Northwest Minnesota

CITY           SKY/WX    TMP DP  RH WIND       PRES   REMARKS
BEMIDJI        CLEAR     61  60  96 SE3       29.82S
HALLOCK        MOCLDY    66  63  88 SE8       29.77R
ROSEAU         MOCLDY    64  61  88 SE7       29.80S
WARROAD        CLOUDY    64  61  88 SE6       29.82S
THIEF RVR FALL CLEAR     63  59  88 E6        29.80S
CROOKSTON      CLEAR     64  61  88 SE7       29.78F
FOSSTON        CLEAR     61  55  82 SE3       29.82S
DETROIT LAKES  CLEAR     64  63  94 SE5       29.82S
MOORHEAD       PTCLDY    68  66  94 SE5       29.79R
PARK RAPIDS    PTCLDY    61  60  97 CALM      29.82S
MAHNOMEN       FAIR      63  61  94 SE5       29.80S
$$
MNZ006-009>011-018-025>026-200800-
   North Central Minnesota

CITY           SKY/WX    TMP DP  RH WIND       PRES   REMARKS
BAUDETTE       CLEAR     61  59  93 SE3       29.82S
FLAG ISLAND    CLEAR     70  63  78 S9        29.80S
INTL FALLS     CLEAR     51  50  96 CALM      29.83S FOG
WASKISH        CLEAR     57  57 100 CALM      29.83R
BIG FORK       FOG       52  52 100 CALM      29.85R VSB 3/4
LONGVILLE      CLEAR     55  55 100 CALM      29.82F FOG
GRAND RAPIDS   MOCLDY    55  54  94 CALM      29.83S VSB 1
CRANE LAKE     PTCLDY    48  48 100 CALM      29.86R
ORR            MOCLDY    55  52  88 CALM      29.82S
COOK           CLOUDY    52  52 100 CALM      29.85S FOG
WALKER         FAIR      62  61  97 CALM      29.82S
$$
MNZ012-019>021-037-200800-
   Northeast Minnesota

CITY           SKY/WX    TMP DP  RH WIND       PRES   REMARKS
DULUTH         FOG       61  59  93 E6        29.83S VSB 1/2
ELY            CLOUDY    61  61 100 CALM      29.84R
HIBBING        MOCLDY    56  53  90 CALM      29.83F
EVELETH        MOCLDY    57  55  94 CALM      29.85S FOG
DULUTH HARBOR  CLOUDY    63  61  94 NE7       29.83S
TWO HARBORS    HAZE      57  54  88 CALM      29.82S VSB 1/4
SILVER BAY     CLOUDY    57  57 100 CALM      29.82S FOG
GRAND MARAIS     N/A     61  59  93 CALM      29.80F
G MARAIS ARPRT MOCLDY    57  54  88 NW3       29.84F
$$
MNZ029>031-032-039>041-046>048-054>057-064-200800-
   West Central Minnesota

CITY           SKY/WX    TMP DP  RH WIND       PRES   REMARKS
FERGUS FALLS   CLEAR     66  61  82 SE3       29.80R
WHEATON        CLEAR     64  61  88 SE7       29.80F
MORRIS         CLEAR     64  63  94 SE5       29.80S
ALEXANDRIA     CLEAR     64  61  90 SE3       29.83R
ELBOW LAKE     FAIR      65  62  90 SE5       29.81S
WADENA         CLEAR     61  59  94 CALM      29.81S
GLENWOOD       CLEAR     63  61  94 CALM      29.82S
APPLETON       PTCLDY    64  63  94 CALM      29.80S
BENSON         FOG       63  63 100 CALM      29.81S VSB 3/4
ORTONVILLE     PTCLDY    64  63  94 CALM      29.80S
MADISON          N/A     66  64  94 CALM      29.80S
WILLMAR        FAIR      63  61  94 CALM      29.83R
$$
MNZ033>034-036-042>043-049>051-058-059-200800-
   Central Minnesota

CITY           SKY/WX    TMP DP  RH WIND       PRES   REMARKS
ST CLOUD       CLEAR     63  60  90 CALM      29.81S
SAUK CENTRE    FAIR      59  58  97 CALM      29.82S FOG
PAYNESVILLE    CLEAR     57  58 100 CALM      29.82S
AITKIN         HAZE      57  52  82 CALM      29.81S VSB 1/2
PINE RIVER     CLEAR     59  59 100 CALM      29.86S FOG
BRAINERD       CLEAR     61  61 100 CALM      29.83R
STAPLES        PTCLDY    61  61 100 CALM      29.82S
LONG PRAIRIE   FAIR      61  59  94 CALM      29.82S
LITTLE FALLS   CLEAR     61  59  94 CALM      29.81F
LITCHFIELD     CLEAR     64  64 100 CALM      29.82S
BUFFALO        PTCLDY    63  59  89 CALM      29.81S
MAPLE LAKE     CLEAR     63  62  98 CALM      29.82S FOG
$$
MNZ037-044-045-052-053-200800-
   East Central Minnesota

CITY           SKY/WX    TMP DP  RH WIND       PRES   REMARKS
PRINCETON      CLEAR     64  63  94 CALM      29.81S
MORA           CLEAR     59  57  94 CALM      29.83S
CAMBRIDGE      CLEAR     64  55  72 CALM      29.80R
RUSH CITY      CLEAR     62  60  96 CALM      29.81S
MOOSE LAKE     FOG       55  55 100 CALM      29.80F VSB 3/4
HINCKLEY       CLOUDY    59  59 100 CALM      29.81F
CLOQUET        MOCLDY    57  55  94 CALM      29.83S FOG
MCGREGOR         N/A     57  55  94 CALM      29.83S VSB 3/4
$$
MNZ071>073-080-081-089-090-097-098-200800-
   Southwest Minnesota

CITY           SKY/WX    TMP DP  RH WIND       PRES   REMARKS
MONTEVIDEO     PTCLDY    66  64  94 SW3       29.81S
GRANITE FALLS  PTCLDY    64  63  97 S3        29.82S
CANBY          MOCLDY    67  63  86 CALM      29.81F
MARSHALL       PTCLDY    66  61  82 S3        29.80F
REDWOOD FALLS  CLEAR     66  63  90 CALM      29.81R
OLIVIA         CLEAR     63  61  94 CALM      29.81S
PIPESTONE      PTCLDY    66  63  88 E3        29.82F
WINDOM         PTCLDY    63  61  94 CALM      29.83F
WORTHINGTON    CLEAR     63   7  11 CALM      29.84F
JACKSON        PTCLDY    63  59  88 CALM      29.84F
TRACY          PTCLDY    68  64  87 CALM      29.82F
SLAYTON        CLEAR     62  60  95 CALM      29.84F
$$
MNZ065>067-074>077-082>085-091>093-200800-
   South Central Minnesota

CITY           SKY/WX    TMP DP  RH WIND       PRES   REMARKS
MANKATO        CLEAR     66  61  82 SW3       29.81S
NEW ULM        CLEAR     63  63 100 CALM      29.81S
ST JAMES       CLEAR     66  63  88 CALM      29.83S
FAIRMONT       CLEAR     66  50  55 CALM      29.83S
GLENCOE        CLEAR     63  59  88 CALM      29.80S
FARIBAULT      HAZE      64  59  82 CALM      29.82R VSB 1
OWATONNA       CLEAR     63  61  94 CALM      29.82R FOG
WASECA         FOG       57  54  88 S3        29.84R VSB 1/2
ALBERT LEA     CLEAR     66  64  94 CALM      29.83R FOG
$$
MNZ078>079-086>088-094>096-200800-
   Southeast Minnesota

CITY           SKY/WX    TMP DP  RH WIND       PRES   REMARKS
ROCHESTER      CLEAR     65  62  90 W6        29.82S
RED WING       CLEAR     63  61  94 N3        29.79S
STANTON        CLEAR     64  62  93 CALM      29.79S
DODGE CENTER   CLEAR     63  63 100 W5        29.82S
WINONA         CLEAR     63  63 100 CALM      29.80R
AUSTIN         CLEAR     64  63  94 CALM      29.82S FOG
PRESTON        CLEAR     64  65 100 CALM      29.82S
$$
ABBREVIATIONS USED IN REMARKS
   TC - TEMPERATURES IN CELSIUS
  WCI - WIND CHILL INDEX
   HX - HEAT INDEX
  VSB - VISIBILITY
$$


USA.gov is the U.S. government's official web portal to all federal, state and local government web resources and services.